Theta_e
337 341 335 331 329 334 330 327 323 316 315 322 320 331 329 329 331 331 329 331 330 327 325 326 327 328 329 329 329 329 328 329 329 329 330 330 330 328
330 331 330 326 326 323 320 321 320 316 310 315 316 326 329 323 327 330 329 329 327 327 326 326 325 325 326 326 326 327 328 327 327 327 328 329 329 329
325 323 323 325 320 320 320 319 317 317 313 316 318 324 330 328 325 327 326 328 325 326 325 325 323 322 323 323 323 324 325 326 326 326 327 327 327 328
321 322 321 320 326 328 320 326 321 321 316 316 319 318 323 326 328 329 324 323 325 325 326 324 322 321 320 320 321 321 320 321 323 324 325 325 326 327
323 322 321 324 325 321 322 321 318 317 317 316 315 318 319 322 323 327 327 325 323 326 324 322 321 320 319 319 319 318 317 316 317 320 321 323 324 325
327 324 322 322 323 321 319 321 320 318 316 315 314 312 318 321 319 316 316 319 318 320 322 322 322 321 318 319 319 319 316 314 314 315 317 316 317 320
324 322 322 321 316 316 315 318 317 315 313 312 311 312 313 312 313 316 312 317 319 323 320 322 322 326 327 319 323 321 317 314 313 312 314 313 314 314
321 322 323 322 318 316 315 314 313 312 312 310 310 310 316 316 316 314 314 312 312 320 321 318 326 326 326 329 320 316 314 312 311 312 312 312 312 311
321 319 316 315 316 316 313 312 312 311 311 314 311 311 313 316 318 315 316 317 316 317 320 315 318 319 326 327 315 312 310 310 310 309 310 309 309 309
319 319 317 316 311 312 312 312 313 315 315 314 315 313 314 315 314 313 314 315 320 317 320 311 316 314 323 324 311 309 307 305 307 307 307 307 306 305
318 316 316 315 302 301 310 310 311 312 312 310 308 305 304 303 306 309 307 308 308 311 316 319 315 318 324 321 314 307 306 304 305 306 307 306 305 304
316 314 308 307 300 300 308 309 307 310 312 310 312 313 309 313 307 313 312 308 309 308 313 311 313 319 314 313 311 309 308 304 304 304 304 305 303 309
309 310 310 300 299 297 297 308 307 308 308 309 309 315 315 316 319 320 316 313 312 312 315 317 317 319 315 308 308 307 306 305 303 303 301 301 303 305
308 309 308 297 296 297 300 301 298 300 310 311 313 312 310 309 311 314 318 319 319 315 318 318 313 312 312 307 303 304 304 304 306 303 304 302 302 302
306 303 299 297 297 300 300 300 299 308 306 307 307 307 308 308 316 314 315 316 316 315 315 317 315 316 318 313 303 302 301 303 304 303 303 304 303 304
305 308 305 302 300 300 305 306 306 306 304 305 305 306 307 307 314 310 309 311 311 311 315 317 316 318 316 315 307 303 302 300 302 302 303 305 306 307
299 308 305 305 304 304 304 304 304 304 304 304 304 304 304 307 308 307 308 309 306 309 311 313 318 318 312 314 307 305 304 301 303 302 303 301 302 305
303 303 301 301 300 301 301 303 304 304 306 304 303 303 304 303 303 304 304 305 307 310 310 312 311 310 310 308 309 306 303 301 302 303 302 299 299 305
304 303 302 301 302 301 303 304 303 305 307 304 303 303 301 301 300 301 302 303 307 309 310 311 309 308 304 299 303 305 302 302 302 300 301 301 302 305
303 302 301 300 301 302 302 303 303 304 304 304 303 303 304 301 300 301 302 304 307 307 306 310 311 307 306 300 298 301 301 303 301 300 299 298 297 298
302 302 303 302 301 301 302 304 303 304 304 303 304 304 302 302 301 302 304 297 301 304 302 301 304 296 308 306 299 297 300 300 303 302 301 300 301 303
303 303 303 302 301 301 303 302 303 302 303 303 303 303 302 302 300 300 300 299 299 299 299 301 303 303 302 298 296 296 297 299 300 300 299 300 304 300
303 304 302 302 301 302 301 302 300 297 300 302 302 303 303 301 301 301 301 301 301 300 298 298 299 299 298 297 296 297 298 298 299 298 297 297 299 301
Wind_Speed
5 6 7 8 8 1 5 7 7 8 8 6 6 6 3 6 4 9 6 7 8 12 16 16 17 20 23 22 20 24 25 25 25 24 24 24 24 23
6 6 6 7 8 8 9 8 8 9 10 9 8 6 8 7 7 9 6 9 9 7 14 17 18 18 19 22 25 21 23 24 27 26 25 25 25 24
5 6 6 6 6 7 8 9 9 8 10 9 10 8 9 9 9 10 7 9 10 10 12 16 17 18 19 21 23 29 24 19 24 25 28 27 25 25
5 6 9 8 8 9 9 7 8 9 6 9 8 9 10 11 11 10 9 7 8 7 14 15 16 18 19 21 22 22 25 26 24 23 23 27 27 26
8 8 9 9 8 8 7 9 8 7 8 9 10 9 10 10 12 10 9 9 8 10 15 12 14 16 18 19 21 22 24 23 24 27 25 25 27 27
5 5 6 9 4 5 7 10 10 8 8 9 10 9 11 10 5 7 8 6 4 8 3 9 8 12 16 16 18 20 23 23 26 30 27 23 19 24
7 9 10 3 5 1 5 8 11 11 11 11 12 12 11 10 10 10 6 9 7 4 7 3 5 7 8 14 14 19 18 20 24 24 25 26 27 24
9 8 11 8 5 7 5 9 10 10 11 10 11 12 13 12 11 10 8 7 9 6 2 5 4 5 7 5 8 12 13 15 19 22 25 27 27 25
8 6 6 3 6 2 4 9 16 18 17 10 11 12 14 13 12 14 13 9 8 9 7 8 8 8 6 3 5 5 8 12 15 21 25 23 24 26
5 3 3 5 4 4 7 11 12 9 7 7 10 11 13 11 11 11 14 11 9 10 12 11 9 9 2 3 9 5 10 12 15 18 20 21 21 21
3 5 9 7 6 3 8 11 13 13 5 12 11 11 12 14 11 11 11 11 12 11 10 5 5 8 1 1 5 4 10 13 12 14 16 19 22 24
7 4 4 6 6 1 8 11 12 12 12 14 13 8 13 12 14 12 10 11 11 11 7 6 8 3 2 3 3 4 5 11 4 7 14 16 19 9
9 7 2 5 8 9 10 8 11 12 16 14 12 9 8 7 8 7 8 9 9 11 11 2 3 5 3 3 2 3 3 5 9 12 18 16 19 18
9 6 6 6 9 11 9 9 12 11 10 9 8 8 8 5 5 9 10 9 9 11 10 8 4 5 5 4 3 2 4 4 4 12 7 15 19 16
8 10 15 13 15 15 14 13 12 8 8 9 8 9 9 7 7 8 9 11 11 11 9 11 6 7 6 4 5 3 3 3 4 9 8 8 8 8
9 9 9 8 11 4 6 7 7 7 7 10 9 9 9 10 7 7 9 7 7 8 8 9 6 9 4 6 8 6 8 4 4 6 7 4 3 7
12 8 11 11 12 12 11 9 7 8 9 10 9 10 9 8 10 10 8 9 6 7 6 6 6 2 8 5 8 7 6 7 7 9 6 7 6 3
8 9 9 7 8 8 9 10 10 11 11 6 7 8 8 12 10 9 7 8 8 8 6 4 5 6 6 7 8 8 7 7 8 9 6 9 7 1
7 8 8 9 10 8 10 9 9 9 11 8 8 8 4 7 8 8 7 7 10 4 5 7 7 6 6 3 2 6 9 7 8 9 8 6 4 5
8 7 6 6 6 8 9 9 9 8 10 10 10 8 6 9 8 8 7 8 6 6 5 3 6 4 4 5 3 2 9 11 10 10 6 4 6 17
8 8 7 7 8 6 8 11 11 12 12 10 10 9 8 8 9 8 4 6 8 6 6 4 4 8 9 8 6 4 5 13 9 10 8 8 7 8
9 9 8 7 6 7 9 9 11 13 11 11 10 8 9 7 7 7 7 8 7 7 7 5 5 6 6 8 9 11 8 10 18 21 18 8 7 6
10 10 9 9 8 7 8 9 7 8 13 11 11 6 7 8 7 6 6 6 6 7 7 8 7 8 8 8 10 9 16 13 8 6 5 15 12 4
Wind_Direction
253 244 264 281 280 197 216 233 257 277 273 260 254 246 313 323 339 322 307 305 229 233 230 222 224 223 215 215 217 222 224 222 216 212 209 205 203 202
316 359 320 306 325 311 300 301 288 297 300 301 296 339 343 319 299 278 274 286 241 228 230 226 229 223 219 219 220 234 225 231 225 215 211 208 205 202
310 293 308 297 295 309 313 300 295 290 301 311 328 310 330 294 275 275 282 280 281 199 235 226 224 228 223 225 226 229 228 230 226 224 216 211 207 204
311 313 312 311 322 289 284 334 314 303 301 298 286 298 280 276 282 258 260 260 264 226 213 220 221 221 223 228 225 222 225 230 232 229 228 215 209 206
293 293 305 303 291 299 335 322 326 311 295 291 297 283 297 296 290 273 256 246 252 262 210 217 221 223 226 230 231 227 224 222 223 220 221 219 209 205
337 312 292 288 339 337 306 306 291 302 294 277 270 281 270 262 245 294 301 306 292 261 173 223 202 223 227 229 230 231 234 231 228 218 216 207 206 198
309 281 266 225 216 260 305 308 313 302 303 302 298 299 298 301 304 306 287 287 299 288 260 281 247 248 242 224 232 229 227 229 222 216 213 211 202 198
295 298 296 278 151 196 217 245 275 282 289 294 297 297 302 301 299 296 312 311 290 310 63 279 280 243 259 256 215 220 218 216 219 220 214 208 205 198
301 313 327 302 238 25 339 289 256 240 241 274 291 296 299 300 309 308 294 282 272 287 283 276 280 274 223 213 200 231 240 240 221 217 208 205 206 198
269 308 314 293 51 337 328 304 304 305 298 255 276 298 296 303 310 296 289 288 279 272 265 267 267 266 145 158 80 348 296 271 239 213 207 201 199 192
311 260 250 274 118 94 320 305 304 299 256 219 240 249 260 268 265 286 272 259 265 245 250 240 260 281 257 42 75 32 341 302 246 221 206 203 195 186
324 67 273 68 134 148 300 301 296 301 326 317 301 279 248 256 234 242 270 277 281 281 277 190 254 288 239 62 38 8 14 21 358 207 178 169 160 158
329 335 19 38 295 267 241 288 293 302 294 292 288 299 296 276 263 246 253 261 272 283 289 311 247 235 215 122 89 31 43 65 81 78 81 90 121 129
305 320 345 273 281 282 277 277 269 288 296 310 305 296 295 314 314 325 322 295 270 267 285 284 271 256 188 171 131 80 66 54 122 99 78 78 75 74
333 316 283 273 272 278 270 269 297 319 333 335 327 320 328 295 314 324 318 303 283 269 269 265 253 244 221 153 136 136 119 60 84 104 105 97 110 126
350 303 291 276 325 313 5 1 351 346 341 329 330 331 328 316 327 333 322 302 291 272 239 251 240 242 213 134 133 144 134 130 110 108 116 100 116 163
323 356 22 10 7 2 355 344 336 332 337 339 322 337 323 324 322 337 313 303 276 271 265 199 213 89 67 117 124 142 134 127 136 122 124 101 82 52
340 34 24 4 359 349 332 342 356 350 340 350 330 318 335 337 324 310 296 292 282 264 222 160 133 133 102 53 73 130 126 137 135 129 124 119 142 243
53 34 14 358 354 356 340 355 351 342 335 349 323 313 335 323 290 291 285 280 278 282 149 142 150 166 151 105 30 58 133 141 134 126 131 145 149 130
47 29 24 3 346 343 353 3 345 12 331 349 334 335 351 313 301 290 283 279 279 103 128 167 170 168 136 138 126 80 134 140 143 136 122 72 77 98
24 14 15 17 358 356 345 348 11 349 351 343 345 359 340 325 325 328 51 47 73 74 80 60 40 75 99 106 95 75 58 65 110 129 132 132 148 137
21 0 5 17 14 353 354 359 14 357 347 342 352 4 347 356 0 23 41 58 65 71 80 68 58 83 95 115 119 116 110 96 73 65 46 19 156 152
350 353 355 15 16 4 353 358 28 6 345 342 340 5 3 4 17 42 57 69 63 75 77 82 81 84 88 100 113 113 115 101 95 80 43 22 27 325